{"data":{"norad_id":63750,"epoch":"2026-09-21T10:14:28.614048Z","epoch_age_seconds":124358,"freshness":"FRESH","line1":"1 63750U 25088AC  26264.42672007  .00000801  00000+0  13403-3 0  9994","line2":"2 63750  51.9033 312.5744 0000452  83.3202 276.7812 14.79932738 76503","mean_motion":14.79932738,"eccentricity":4.52e-5,"inclination_deg":51.9033,"raan_deg":312.5744,"arg_perigee_deg":83.3202,"mean_anomaly_deg":276.7812,"bstar":0.00013403,"rev_number":7650,"period_min":97.301719397466,"perigee_km":629.21970940397,"apogee_km":629.85320308441,"semimajor_km":7007.6734562442,"source":"CELESTRAK","updated_at":"2026-09-22T09:00:29.323086Z"}}